Theta_e
347 347 347 347 346 344 342 339 336 334 333 333 333 332 331 331 330 331 331 332 334 335 336 336 336 335 335 336 337 337 337 336 336 337 337 337 336 337 338 338 338 338 338 339 340 340 339 339 339 341 343 346 348 348 347 347 346 346 346 346 347 347 347 347 345 338 333 334 335 335 337 338 337 338 338 335 332 331 331 330 329 329 329 330 334
347 347 347 347 347 346 345 343 340 337 335 333 333 332 332 331 330 330 330 331 332 333 334 335 336 336 336 336 336 335 333 332 333 334 335 336 336 336 336 336 336 336 336 336 337 338 338 338 337 338 340 342 345 347 348 347 347 347 347 347 347 347 347 347 347 342 335 333 334 335 338 339 338 338 337 334 331 330 329 328 328 328 329 330 333
347 348 348 348 348 347 347 346 344 342 339 335 333 332 332 332 331 330 330 330 330 331 332 333 334 335 336 336 335 331 328 327 328 330 332 334 336 336 336 336 336 336 336 337 336 337 337 336 337 337 338 339 340 344 347 348 349 348 348 347 347 347 348 347 347 345 340 335 334 335 337 338 337 336 335 333 332 330 328 327 327 328 329 331 333
347 348 348 348 348 348 348 347 346 345 344 341 336 332 331 332 332 331 330 329 329 329 330 331 333 334 334 334 333 329 327 326 326 326 327 330 332 333 334 334 335 336 337 337 337 337 337 336 336 337 338 338 338 339 342 345 347 348 348 348 347 347 348 347 346 345 342 338 336 336 336 335 334 334 333 332 331 329 328 327 327 327 330 333 335
348 348 348 348 348 348 348 347 347 347 346 346 342 336 332 331 331 331 330 330 329 329 330 331 332 332 331 330 330 328 327 325 325 325 325 326 327 328 329 330 331 333 334 336 336 336 336 336 336 337 337 337 337 337 338 339 341 342 343 345 345 345 345 344 343 343 341 339 337 335 334 334 333 333 333 331 330 328 327 328 328 328 330 335 338
348 348 348 348 348 349 349 348 347 348 347 347 346 343 339 334 331 330 329 329 329 328 329 330 331 331 330 329 328 327 327 326 325 325 325 325 325 325 326 327 328 329 330 332 333 333 334 334 334 336 336 335 336 336 336 337 338 338 339 340 342 342 342 340 340 340 339 338 337 335 335 334 334 333 332 330 329 328 327 327 329 330 331 335 340
347 348 348 348 349 348 349 348 348 348 348 348 348 347 345 342 338 333 330 329 328 328 328 328 329 330 330 330 329 328 327 326 326 326 325 326 326 325 326 325 325 327 327 329 330 330 331 332 332 333 333 334 334 334 335 336 336 337 337 338 339 339 339 338 339 338 338 338 338 337 337 336 335 333 332 330 329 330 330 328 329 330 332 336 342
348 348 348 349 349 348 349 349 348 349 349 349 349 349 348 347 344 341 335 331 328 328 328 327 327 328 328 328 329 328 328 328 327 326 326 326 326 326 326 325 325 325 325 326 327 327 328 329 330 331 332 332 332 333 333 334 334 335 334 335 335 336 336 337 337 337 338 339 339 338 337 336 335 334 332 331 331 333 334 333 332 332 332 336 344
348 349 348 349 349 349 349 349 348 349 349 350 350 350 350 349 347 345 342 336 331 328 327 327 327 327 327 326 326 327 328 327 327 326 326 326 326 325 325 325 325 324 324 325 325 326 326 326 328 329 330 331 332 332 332 332 333 332 332 332 333 333 333 334 335 336 336 337 335 335 335 335 335 334 333 332 333 335 337 337 337 336 334 337 344
349 349 349 349 349 349 349 349 349 349 349 350 350 350 351 351 350 349 346 342 337 333 329 328 327 327 326 326 326 326 326 326 326 326 325 325 325 325 324 324 324 323 323 323 324 325 326 326 327 327 328 330 331 331 332 331 332 331 331 331 331 331 331 331 331 332 333 333 332 332 333 332 332 334 334 334 336 339 341 341 341 338 336 337 343
350 350 349 350 350 349 350 350 349 350 350 350 351 351 351 351 351 351 350 348 346 342 338 334 331 329 328 327 326 326 325 325 325 325 325 325 324 324 324 323 323 323 323 323 323 324 325 325 326 327 328 328 329 330 331 331 331 331 331 331 330 330 330 330 329 329 330 331 331 332 333 332 333 335 335 334 338 341 343 344 344 343 340 339 342
351 351 351 351 350 350 351 350 350 351 351 351 351 351 352 352 352 352 352 351 350 348 346 343 339 337 334 332 331 330 330 329 328 327 326 326 326 326 326 325 325 324 324 324 323 323 324 325 326 327 328 329 329 330 329 330 331 331 331 331 331 331 331 330 329 329 329 329 331 332 334 336 336 336 336 337 341 344 345 345 346 346 343 340 343
351 351 351 351 351 351 351 351 351 351 351 352 352 352 352 352 352 353 353 353 352 351 351 349 348 345 343 340 338 337 336 335 333 332 331 330 330 329 329 328 328 327 326 326 325 324 324 325 326 327 329 331 331 331 330 330 330 331 331 332 332 332 332 332 331 331 330 330 331 332 333 338 339 338 338 342 344 345 345 345 346 347 345 342 342
351 351 352 352 351 352 352 351 351 352 352 352 352 352 353 352 353 353 353 353 353 353 353 352 352 351 349 348 345 343 341 338 337 337 336 335 334 334 333 332 331 330 329 328 327 326 326 326 326 327 329 331 333 333 333 332 331 332 331 331 331 332 333 333 333 333 333 332 332 332 332 337 340 340 342 344 345 345 345 345 345 346 346 342 340
352 351 352 352 352 352 352 350 348 349 351 352 353 353 353 353 353 353 354 354 353 353 353 354 354 354 353 353 351 350 346 341 339 338 337 337 337 337 337 336 335 334 332 331 330 328 327 327 327 328 329 331 333 335 335 335 334 334 333 331 331 331 331 332 332 333 334 333 333 333 333 335 339 341 343 345 344 343 343 344 345 345 345 342 341
353 353 352 352 352 353 353 351 350 349 350 352 353 354 354 354 354 354 354 354 354 354 354 354 355 355 355 355 354 354 350 344 342 340 337 338 338 339 339 338 337 337 335 334 333 331 329 329 329 330 330 332 334 336 337 338 338 337 335 333 332 331 330 330 330 331 332 333 333 333 333 335 336 338 341 342 342 343 344 345 345 345 344 342 341
353 353 353 353 353 353 353 353 352 351 352 353 354 354 354 355 354 354 355 355 354 355 355 355 355 355 356 356 357 356 352 346 344 342 340 340 341 341 340 339 338 338 336 335 335 333 332 331 331 331 331 332 334 336 339 340 340 339 338 336 334 332 330 329 329 330 331 332 332 332 332 332 333 334 337 339 340 342 344 344 344 344 343 342 343
352 352 352 353 354 354 353 353 353 353 353 354 355 355 355 355 355 355 355 355 355 355 355 356 356 356 357 357 358 358 356 351 348 345 341 342 344 343 341 340 340 339 338 337 337 336 335 334 334 334 333 333 335 338 341 342 342 341 340 338 335 332 329 328 328 329 330 331 331 332 332 331 332 334 337 339 340 340 341 341 342 342 342 341 344
352 352 352 352 353 354 354 354 354 354 355 355 355 356 355 356 356 356 356 356 356 356 356 357 357 357 357 357 358 358 358 356 354 350 344 343 345 344 343 343 342 340 338 337 337 337 337 336 336 336 334 334 337 340 342 344 344 342 341 340 336 331 328 328 328 329 330 330 330 331 331 333 335 337 339 341 342 342 341 341 341 341 341 341 345
350 352 354 354 353 353 353 355 355 355 356 356 357 357 357 357 357 357 357 357 357 357 357 357 358 358 358 358 358 358 358 358 358 356 351 348 347 346 346 346 344 341 339 338 338 339 338 337 338 337 336 335 337 340 344 345 344 343 343 341 336 330 327 327 329 330 331 331 330 331 332 334 336 338 340 341 343 344 344 343 342 341 341 342 345
345 349 352 354 355 354 353 353 355 357 357 358 358 357 358 358 358 357 358 357 358 358 358 358 358 358 358 358 358 358 358 358 358 359 357 355 353 351 349 347 345 343 341 340 339 339 338 337 338 339 338 337 337 340 344 345 345 345 344 341 335 330 329 329 329 331 333 333 332 332 332 333 335 337 339 340 342 344 346 345 343 342 342 343 346
334 340 345 349 352 355 355 354 354 355 355 357 357 356 357 358 358 359 359 359 359 359 359 358 359 358 358 358 358 358 358 357 357 358 359 359 358 356 353 349 346 345 345 343 341 339 337 338 339 340 339 338 338 341 344 345 346 346 345 342 339 336 336 336 336 338 339 338 338 337 336 336 337 338 338 339 341 343 346 346 344 343 343 344 347
327 330 338 343 345 349 354 356 356 356 355 355 355 355 356 356 357 358 359 359 359 359 358 358 359 359 358 358 358 358 358 357 357 357 358 359 359 359 357 353 350 348 347 344 341 338 337 338 340 341 341 340 340 341 343 344 346 346 346 346 345 344 344 344 344 344 344 344 344 344 342 341 341 340 340 340 341 342 345 345 345 345 344 345 349
331 329 334 338 338 342 348 350 351 354 357 357 356 356 355 355 355 356 357 358 359 359 358 358 358 358 358 358 358 357 357 357 356 356 356 358 359 359 358 356 354 351 348 344 341 340 339 340 341 342 342 343 343 343 344 345 347 347 347 348 349 349 349 348 349 349 349 349 349 348 346 345 344 343 340 340 341 343 344 344 345 345 345 347 350
333 332 332 333 332 337 344 346 345 347 351 355 357 358 357 356 355 356 356 356 357 357 357 357 358 357 357 357 357 356 356 356 356 356 356 357 357 358 359 358 356 354 351 347 344 342 341 341 342 343 344 345 346 347 347 347 348 348 349 349 350 351 351 352 352 353 353 352 351 350 348 346 344 342 342 343 344 344 344 344 345 347 347 349 351
333 333 331 329 327 330 336 341 344 344 345 348 352 355 357 357 357 357 356 356 356 356 356 356 356 356 356 355 354 355 356 356 356 356 355 356 356 357 358 358 358 356 354 351 348 346 345 345 345 346 347 348 349 349 349 349 349 350 350 350 351 352 352 352 353 353 353 352 351 350 349 348 346 345 344 345 345 344 344 345 346 347 348 350 351
333 332 330 327 328 329 331 333 337 340 341 343 345 349 353 354 356 357 356 354 355 356 356 355 355 355 354 353 353 354 356 355 355 355 355 355 355 355 357 358 358 357 356 354 352 349 347 347 348 348 348 349 350 350 350 351 351 350 351 351 351 351 350 350 351 351 351 351 350 350 350 350 349 348 347 346 345 345 345 346 347 349 350 352 353
333 333 331 329 328 330 333 333 334 336 339 341 344 350 354 357 358 360 359 357 358 359 357 356 355 354 352 351 352 354 354 353 353 354 353 352 352 353 356 358 358 358 357 356 354 352 350 349 349 349 349 349 350 350 350 351 351 351 351 350 350 350 349 349 350 350 350 349 350 349 350 351 350 349 348 348 347 347 347 348 350 351 352 354 355
333 333 333 331 327 328 332 335 336 337 339 341 344 349 354 358 361 362 362 361 360 359 358 357 355 353 351 350 351 351 352 352 352 352 352 352 352 353 355 357 358 358 358 357 356 354 353 351 351 351 350 350 350 350 350 351 351 351 350 351 351 350 350 350 349 348 348 349 349 350 350 350 349 349 351 351 350 349 349 351 353 353 354 355 356
333 332 332 331 329 329 332 335 336 338 339 340 341 345 350 355 359 361 362 361 360 359 359 358 357 356 354 352 351 350 350 350 350 352 353 353 354 354 355 357 358 358 358 358 356 355 354 353 352 352 352 352 351 351 351 351 351 350 350 351 351 351 351 350 349 348 348 349 349 349 349 349 350 351 353 353 351 351 352 354 354 354 355 355 355
333 334 333 333 333 332 332 334 336 338 340 341 342 343 345 350 355 359 361 362 361 361 360 359 358 358 357 356 354 353 352 351 351 353 354 354 355 355 356 357 358 358 358 358 357 356 355 354 354 353 353 352 352 352 351 351 351 351 351 351 351 351 350 349 347 347 348 349 348 349 349 350 352 354 355 355 354 353 354 355 355 355 355 354 354
333 334 335 335 335 333 333 333 335 337 339 341 342 343 344 346 349 353 358 362 363 362 360 358 358 357 357 357 356 354 354 352 352 353 354 355 355 355 356 357 358 358 358 358 357 356 356 355 355 354 353 353 352 352 352 352 352 352 351 351 350 349 347 346 346 347 349 350 350 350 352 353 354 355 355 356 355 354 353 352 352 353 354 354 353
330 332 334 335 335 334 334 334 335 337 338 340 342 341 342 346 349 351 355 360 362 362 360 358 357 356 356 355 355 354 354 353 353 354 354 355 356 356 357 358 358 358 358 358 357 357 357 356 355 355 354 354 353 353 353 353 353 353 351 349 349 348 347 347 349 350 351 352 352 353 354 354 354 355 356 356 356 354 353 353 353 354 354 353 352
327 329 331 333 334 334 335 336 336 336 337 339 341 340 340 345 351 354 355 357 360 361 360 358 356 355 355 355 354 354 354 353 354 354 355 356 357 357 358 358 358 358 358 358 358 358 357 356 356 356 355 355 354 354 354 354 353 353 351 347 347 348 348 349 351 352 353 353 354 355 355 355 355 355 355 356 356 355 355 355 355 355 354 354 353
326 328 330 332 333 334 335 336 336 336 337 338 341 342 341 343 350 354 355 355 357 359 359 358 356 356 356 356 355 353 354 354 354 354 355 357 358 358 358 358 359 359 358 358 358 358 358 358 357 357 356 355 355 355 355 354 354 353 351 348 348 349 350 351 353 354 355 355 355 355 355 355 355 355 355 355 355 355 355 354 354 354 354 354 353
326 329 331 333 334 334 335 335 336 337 337 338 341 343 344 344 348 352 353 354 355 356 357 357 357 357 358 358 357 357 356 355 355 355 356 357 358 359 359 359 359 360 360 360 360 359 359 359 359 358 357 356 356 356 355 355 354 353 352 350 351 352 353 353 354 356 356 356 356 356 355 355 355 354 354 353 353 354 354 353 353 354 354 353 351
328 331 333 334 335 335 335 336 336 336 337 339 340 342 343 344 346 350 353 355 355 354 355 356 357 357 357 357 357 358 358 357 357 357 357 358 359 359 360 360 360 360 360 360 360 360 359 360 360 359 358 357 356 356 356 356 356 355 353 352 352 353 353 354 355 356 357 357 357 356 356 356 355 354 353 353 353 354 353 353 354 354 353 353 351
329 333 333 334 335 335 336 337 337 337 337 338 340 342 343 344 345 348 351 353 353 353 355 358 359 359 358 356 357 359 359 359 358 358 358 359 359 359 360 361 361 361 361 361 361 361 361 362 361 360 359 358 358 358 357 357 357 356 354 353 354 354 354 354 355 356 357 358 357 357 357 356 355 354 354 354 354 353 352 353 354 354 352 351 349
331 334 333 333 334 335 335 335 336 337 338 338 339 341 343 345 345 347 349 351 352 352 354 357 358 357 355 355 357 360 360 360 360 359 359 359 359 359 360 361 361 362 362 362 362 362 363 363 362 361 360 360 359 359 359 359 358 357 356 355 355 355 355 355 356 357 358 358 358 357 357 356 354 354 355 355 355 354 353 353 354 352 351 349 348
330 333 334 333 333 334 334 334 335 336 338 339 339 340 342 344 345 346 348 350 352 353 353 355 356 355 354 355 358 360 360 361 361 360 360 360 360 360 360 361 361 362 362 362 363 363 363 363 363 362 362 361 361 361 360 359 359 358 357 356 356 356 356 356 356 357 357 358 358 357 356 355 355 355 355 355 354 353 353 353 353 351 349 347 345
329 332 333 333 332 332 333 333 333 335 337 338 339 340 341 343 344 346 347 349 351 352 353 353 353 354 355 356 358 360 361 361 361 361 361 361 361 361 361 361 362 363 363 363 363 363 364 364 363 362 361 361 361 361 360 359 359 359 358 358 358 358 357 357 356 357 357 357 357 356 356 355 356 356 354 353 352 351 351 351 350 347 344 342 340
328 330 331 332 332 331 331 332 333 334 336 337 338 339 341 342 343 345 346 347 349 350 351 352 352 353 354 356 358 360 361 362 362 362 362 362 362 362 362 363 363 363 364 364 364 365 364 365 364 363 361 360 360 360 359 358 358 358 358 358 358 358 357 357 356 356 356 356 355 355 355 355 356 355 354 352 351 349 348 347 344 340 338 336 335
327 327 329 330 330 330 330 331 332 333 334 335 336 338 339 341 342 343 344 345 347 348 349 350 351 351 352 354 356 359 361 362 361 361 362 363 363 363 363 363 363 364 364 365 365 365 365 365 364 364 362 361 359 359 358 357 356 356 356 357 357 357 356 355 355 356 355 354 354 354 354 354 355 354 352 351 350 347 344 342 339 336 334 333 332
326 326 327 329 329 329 329 330 330 331 332 333 334 336 338 339 341 342 343 344 345 346 348 349 349 350 351 352 353 356 358 360 360 361 362 363 363 363 363 363 363 364 364 364 364 364 364 364 363 362 362 361 360 358 357 356 355 353 353 354 354 353 352 352 353 354 353 353 353 354 353 353 353 351 349 346 344 341 338 336 334 332 331 330 330
325 326 327 328 328 328 328 328 328 329 329 329 331 333 336 338 340 341 342 343 344 346 347 348 348 349 350 351 352 353 356 358 359 360 361 362 363 363 362 362 362 363 363 362 363 362 360 360 361 361 360 359 358 356 355 354 353 351 351 352 352 351 349 349 350 350 351 352 352 352 352 351 349 347 345 340 336 334 333 332 331 330 329 329 329
325 325 326 327 326 325 326 326 326 326 326 327 328 331 333 336 339 341 342 343 344 345 346 346 347 347 348 348 349 351 352 355 357 358 359 361 361 361 360 360 360 361 360 360 359 357 356 357 359 358 356 354 353 353 352 351 350 350 350 351 351 350 348 348 348 348 349 350 349 348 349 348 345 343 340 336 332 330 330 330 329 329 329 329 329
324 325 325 325 324 323 323 323 323 324 324 325 327 330 332 334 337 339 340 341 342 343 344 344 344 344 344 344 344 344 345 347 349 352 355 357 358 358 357 357 356 355 356 356 354 353 354 355 354 351 349 349 348 348 348 347 346 347 347 346 346 347 348 349 349 348 347 346 344 342 342 341 339 336 335 332 329 328 328 328 328 328 329 329 329
323 324 324 323 321 321 321 321 322 322 323 324 325 327 329 331 334 336 337 339 340 341 341 341 340 340 340 339 338 337 336 336 338 340 342 345 347 348 348 348 348 347 348 348 346 345 347 348 345 342 344 345 344 344 343 343 342 342 342 341 342 345 347 347 346 344 342 339 337 335 334 334 332 331 331 330 328 328 327 327 327 327 327 327 327
322 323 322 321 319 319 319 319 320 321 321 321 322 323 325 327 329 331 333 335 336 337 337 337 337 337 337 336 334 332 330 328 329 329 330 331 332 333 335 338 339 338 336 336 336 337 338 339 338 338 339 340 340 339 339 338 338 338 337 336 337 339 340 340 339 337 335 333 331 330 329 329 329 329 328 328 327 327 326 326 326 326 326 326 325
322 321 320 318 317 317 317 317 317 318 319 319 319 320 321 322 324 325 327 329 331 332 332 332 332 332 331 329 328 326 325 323 322 322 323 323 324 324 326 331 334 332 329 329 330 332 332 333 334 335 335 335 335 336 335 334 333 333 331 330 330 330 331 332 332 332 330 329 329 329 328 329 328 328 327 326 326 325 325 324 324 323 323 323 322
321 320 318 316 316 315 315 315 315 316 316 316 317 318 318 319 319 320 321 323 324 326 327 327 327 326 325 322 320 319 319 318 318 317 317 317 317 317 319 322 325 327 326 325 325 327 329 330 330 330 331 331 332 332 331 330 329 328 327 326 326 326 326 327 328 328 328 328 327 326 326 326 326 325 324 324 324 324 324 323 323 321 319 318 316
Wind_Speed
41 39 37 36 35 34 33 32 32 32 32 33 33 33 31 29 27 26 26 26 24 23 23 23 23 22 20 20 19 18 17 16 16 16 15 15 14 13 13 12 12 12 11 11 11 11 11 11 11 11 11 12 12 13 14 14 15 15 14 14 14 14 15 15 16 15 11 9 10 10 10 11 10 9 10 10 10 9 10 12 15 16 17 17 16
43 41 39 38 36 35 34 33 32 32 32 33 34 34 33 32 29 28 27 27 25 24 23 24 24 23 22 21 20 19 18 17 17 17 16 16 15 15 14 14 14 13 13 12 12 12 12 12 11 11 11 13 13 14 15 15 15 15 14 15 15 15 16 15 16 17 15 12 11 11 11 12 11 11 12 12 11 9 10 13 15 16 17 17 16
43 42 40 39 37 35 34 33 33 33 33 33 35 36 35 34 32 30 29 28 27 25 23 23 24 24 23 22 21 20 18 17 17 17 16 16 16 16 15 15 15 14 14 13 13 13 13 13 12 11 11 13 13 14 15 15 15 15 15 15 15 15 15 15 15 17 18 17 15 14 13 13 12 12 13 13 12 11 12 15 16 17 18 17 15
44 43 42 40 38 37 36 35 34 34 34 34 34 36 36 36 35 33 31 30 29 27 25 24 24 24 24 24 23 21 20 19 18 17 16 16 16 17 17 17 16 16 15 14 14 14 14 14 13 12 12 13 14 14 15 15 15 15 16 15 15 14 14 15 16 18 19 19 18 16 16 16 14 13 14 14 12 11 13 15 16 17 17 17 15
45 44 43 42 40 39 38 37 36 35 34 34 34 35 36 37 37 35 34 33 31 29 28 27 26 26 26 25 24 23 22 21 20 19 18 17 17 18 18 18 18 17 17 16 15 15 15 15 14 14 14 14 14 14 15 15 16 16 16 16 16 15 15 16 17 18 20 21 20 19 18 17 16 15 14 14 13 12 13 15 16 16 17 17 16
45 45 44 43 42 41 40 39 38 36 35 34 34 34 35 37 37 37 36 35 33 32 31 30 29 29 28 27 26 26 24 23 23 22 21 20 19 19 19 19 19 19 18 18 17 17 16 16 15 15 16 15 15 15 15 15 15 15 15 15 15 16 16 16 17 18 19 20 21 21 19 18 17 15 14 14 14 14 14 16 16 16 17 16 15
45 45 44 44 43 42 41 40 39 37 35 34 33 33 34 36 37 38 38 37 36 35 33 33 32 31 31 30 29 29 28 27 26 25 24 23 22 22 21 21 20 20 20 19 18 18 18 18 17 17 17 17 16 15 15 15 15 15 15 14 15 15 16 16 16 17 18 19 20 20 20 18 16 15 15 14 14 15 16 17 18 18 18 17 15
44 44 44 44 44 43 42 41 39 37 36 34 33 33 33 34 36 38 39 39 39 38 36 35 34 33 33 32 32 32 31 31 30 28 27 26 25 25 24 24 23 22 21 20 20 19 19 19 19 18 18 18 17 17 16 16 16 16 16 16 16 16 17 17 17 18 19 20 20 20 20 19 17 15 15 14 14 15 16 18 19 19 19 18 15
44 44 44 44 44 43 41 41 40 38 37 36 35 33 33 33 34 36 38 39 40 40 39 38 37 36 35 34 34 34 34 34 33 32 30 29 29 28 27 26 26 25 24 23 21 20 20 19 19 19 19 19 18 18 18 18 18 18 17 17 18 18 18 18 18 19 19 20 21 20 20 21 18 16 14 14 15 16 17 18 20 20 20 18 15
43 43 44 44 43 42 42 41 40 40 39 38 37 35 34 33 33 34 36 38 39 40 40 40 40 40 39 37 37 37 37 36 35 34 33 32 32 31 30 29 28 27 27 25 24 22 21 20 19 19 19 20 20 20 20 20 20 20 19 19 19 20 20 20 20 20 20 21 21 21 22 23 20 16 15 15 15 16 17 19 20 21 21 19 16
43 43 44 43 42 42 42 41 41 41 40 39 38 37 36 35 34 33 34 35 36 38 39 40 41 41 41 40 39 39 39 37 36 35 34 33 33 33 32 31 30 29 29 28 27 25 23 22 21 20 20 20 21 21 21 21 21 21 21 21 21 22 22 22 22 21 22 22 22 23 24 25 21 16 15 16 16 17 18 20 21 21 21 21 18
42 43 43 42 42 42 41 41 41 41 40 40 39 38 37 36 36 35 34 33 33 35 37 38 40 40 41 41 41 41 40 39 38 37 36 35 34 34 33 32 31 31 30 29 29 27 26 25 24 23 22 21 21 22 22 23 22 22 22 21 22 22 23 23 23 23 23 23 24 24 24 24 21 17 15 17 18 18 19 20 21 22 22 21 20
42 42 42 41 41 41 41 41 42 42 41 40 39 39 39 38 37 36 35 34 34 34 34 35 36 37 39 40 41 41 40 39 38 38 37 36 35 35 35 34 33 32 32 31 30 29 28 27 26 25 24 23 23 23 23 24 23 23 23 22 22 22 22 22 23 23 24 24 25 25 23 22 21 19 17 19 21 21 21 20 21 21 22 21 20
42 42 41 42 42 41 39 37 37 39 41 41 41 40 39 38 37 36 35 35 35 34 33 33 34 34 35 37 38 39 39 39 38 38 37 36 35 35 35 34 34 33 33 32 31 30 30 29 28 27 25 24 24 23 23 24 24 24 24 24 23 22 21 21 21 21 23 24 26 26 24 22 22 21 20 21 22 22 21 21 21 22 22 22 21
41 42 41 41 42 42 41 36 31 31 33 38 41 41 39 38 37 36 36 36 35 34 33 33 33 32 33 34 35 37 38 38 38 37 37 35 35 35 34 34 33 33 33 32 32 31 31 30 30 28 26 25 24 24 24 24 24 24 25 25 25 24 23 22 21 21 22 23 25 27 26 24 24 24 24 23 23 22 22 22 23 23 23 23 22
36 39 42 42 42 42 42 39 35 32 31 33 38 39 39 37 36 35 35 35 35 35 34 34 33 32 32 32 33 35 36 36 36 36 36 35 34 34 34 33 32 32 32 31 31 31 31 31 30 29 28 27 25 24 24 24 25 25 26 26 26 25 25 24 23 23 23 23 25 26 27 26 26 26 26 25 24 23 23 24 24 23 23 24 23
31 33 37 42 43 42 40 40 40 38 36 35 35 36 37 36 35 34 35 35 34 35 35 34 33 33 32 32 32 32 33 34 34 34 34 33 33 33 33 32 32 31 31 30 30 30 30 30 30 29 29 28 26 25 24 24 26 27 27 27 26 27 27 26 25 25 25 25 25 26 27 26 26 26 27 26 25 24 25 27 26 23 23 24 24
26 27 29 34 39 41 40 39 39 39 40 39 37 35 35 35 35 34 35 35 34 34 34 34 34 33 33 32 31 30 30 29 30 31 31 31 32 32 32 32 31 31 30 29 29 29 29 29 28 28 29 28 26 25 24 25 27 28 28 27 27 28 29 28 27 26 25 25 26 26 26 26 26 25 25 24 24 24 26 26 24 22 23 24 24
19 21 20 21 28 35 38 39 39 38 39 39 38 36 35 35 35 35 36 36 35 35 35 35 35 34 33 32 31 30 29 27 26 27 28 29 30 31 31 32 31 30 29 29 29 29 28 28 27 28 28 28 26 25 24 25 27 28 28 28 29 30 30 28 28 27 26 25 25 25 25 25 24 23 22 21 21 21 22 22 21 21 23 24 23
12 13 13 14 19 26 31 34 36 36 35 36 36 36 35 35 36 37 38 37 37 37 37 37 36 35 34 33 32 31 30 28 26 25 25 26 28 30 31 32 32 30 29 29 29 29 28 27 27 27 28 28 27 25 24 24 26 26 27 28 30 30 28 27 27 27 26 26 26 25 24 23 22 22 22 21 20 20 19 19 20 21 23 23 22
11 11 13 14 16 18 23 28 30 31 31 31 33 35 36 37 38 38 39 39 39 38 38 38 37 36 35 34 33 32 31 29 27 26 25 25 26 28 31 32 31 30 29 29 29 28 28 27 27 26 27 28 27 25 24 23 23 24 25 26 28 28 26 25 26 26 26 26 26 25 25 24 24 23 23 23 23 22 21 21 21 22 23 23 22
10 11 14 15 13 12 14 20 25 26 27 26 28 30 32 35 38 39 39 40 40 39 39 39 39 38 37 36 35 33 32 31 29 27 26 26 26 27 29 30 29 29 30 29 29 28 27 27 26 25 26 26 27 26 24 23 22 23 22 22 22 21 21 22 23 23 24 24 24 25 26 26 26 25 25 26 26 25 24 22 22 23 24 23 22
7 10 15 17 16 14 12 12 15 19 21 23 25 26 27 29 33 37 40 41 42 42 41 40 40 39 38 38 36 34 32 31 30 29 28 27 27 27 28 28 28 28 30 30 29 28 27 27 25 24 24 25 26 25 24 23 23 23 21 19 18 18 18 19 21 22 23 23 24 26 27 28 28 28 28 28 27 26 25 24 24 24 25 24 22
6 8 12 15 15 17 18 16 14 13 15 18 22 25 26 26 28 34 39 42 43 44 43 41 41 41 39 38 37 35 34 33 32 30 29 28 28 28 28 27 27 28 29 30 29 28 27 27 25 24 24 24 25 24 24 24 24 24 22 20 19 19 20 22 23 23 24 26 27 28 29 29 30 30 30 29 28 27 27 27 26 26 26 24 23
10 8 10 13 14 15 17 18 18 16 14 15 17 20 22 24 26 31 37 42 44 44 43 42 41 40 40 38 37 35 34 34 33 32 30 29 29 28 28 28 27 27 28 29 29 28 27 25 24 24 24 25 25 25 26 26 25 24 23 22 22 22 23 25 26 26 28 29 29 30 31 31 32 32 31 29 28 28 28 29 28 27 26 25 24
13 11 11 13 15 17 16 15 15 16 16 17 19 19 20 21 24 28 34 41 45 43 42 41 40 39 39 38 37 36 36 36 35 34 32 31 30 29 29 28 28 28 28 28 28 27 26 25 24 25 26 26 27 27 27 27 27 27 27 26 26 26 27 28 28 30 31 31 31 32 33 32 32 32 31 29 29 29 28 28 27 27 26 25 25
15 14 14 14 16 18 18 17 15 15 15 16 19 22 23 25 27 27 33 42 45 42 40 40 39 38 37 36 37 38 37 37 36 35 34 33 31 29 29 28 28 28 29 28 27 27 26 26 26 26 27 28 28 29 30 31 31 30 30 29 29 29 29 30 31 32 33 33 33 34 34 33 32 32 32 32 31 30 27 26 26 26 25 24 24
17 16 15 15 17 17 17 16 15 15 14 15 18 22 24 26 28 29 33 40 41 38 37 38 38 36 35 35 36 37 37 36 35 34 33 31 29 27 27 26 26 27 27 26 26 26 27 28 28 28 29 29 30 31 32 33 33 32 32 32 31 30 31 32 33 34 34 34 35 35 35 35 35 34 33 32 32 30 27 26 25 25 24 23 25
19 18 17 16 17 18 17 15 14 14 15 16 19 22 24 24 26 28 31 34 35 34 34 35 35 34 34 34 34 34 35 33 28 26 27 27 25 25 24 23 23 23 22 22 24 26 28 31 32 31 31 32 32 33 34 35 34 34 33 33 32 32 33 34 35 35 34 34 35 36 37 37 36 35 33 32 32 30 28 25 24 23 24 25 26
21 20 19 18 18 18 17 16 16 15 15 16 19 22 24 24 25 27 29 30 32 33 34 33 33 34 35 35 34 33 32 28 24 24 26 26 25 25 25 23 22 21 21 23 25 28 30 32 33 33 33 33 34 34 35 36 35 34 34 34 33 33 34 35 35 34 34 35 37 38 38 38 37 36 34 32 31 30 27 25 24 24 25 26 26
21 20 20 19 18 18 18 17 17 17 16 17 18 21 23 24 25 26 28 28 28 31 34 34 34 35 37 37 36 35 34 31 28 30 31 29 27 27 26 25 24 23 23 24 26 28 29 31 32 32 32 33 34 35 36 36 35 34 33 33 34 34 35 35 34 33 33 35 37 38 39 38 38 37 34 31 29 29 28 26 26 27 28 29 28
21 20 20 20 19 20 20 19 18 18 17 17 18 20 22 24 25 25 25 25 26 28 31 33 33 34 35 35 35 36 35 33 32 32 32 31 29 28 27 26 25 25 25 25 27 29 29 31 31 31 31 33 33 34 36 36 35 33 32 33 34 34 34 34 33 32 33 34 36 37 38 37 37 36 34 31 29 29 30 29 29 30 31 30 27
20 20 20 19 20 20 21 20 19 19 18 18 19 20 21 24 25 25 24 23 23 26 29 31 32 32 32 32 33 34 34 32 31 33 33 33 31 30 28 28 28 28 28 28 29 30 30 32 32 31 31 31 32 33 34 35 33 32 31 33 34 34 32 32 32 33 34 36 36 36 36 35 34 33 33 32 30 29 30 30 30 31 31 30 27
19 19 19 18 20 21 21 21 21 20 19 19 18 20 21 23 24 25 25 24 23 25 27 29 30 30 30 30 31 32 32 32 33 34 35 35 34 33 31 30 30 30 30 30 30 30 31 32 32 32 32 31 31 33 33 33 32 31 31 33 35 34 32 32 34 34 34 34 35 36 35 33 32 32 31 31 29 28 28 28 29 29 30 30 28
21 20 19 18 19 21 22 23 22 21 20 19 17 18 21 22 23 24 25 25 25 26 27 28 28 28 27 27 28 29 30 32 33 34 35 36 38 36 34 33 33 33 33 32 32 32 32 32 32 32 32 32 32 33 33 32 31 31 31 33 34 33 32 33 35 34 33 32 33 33 32 31 31 31 30 29 28 26 27 28 29 28 27 27 26
22 21 21 19 19 20 22 24 24 23 22 21 18 18 20 22 23 24 25 25 25 26 27 28 28 28 27 27 27 28 29 30 32 33 35 37 39 39 38 38 38 36 35 35 34 34 33 33 33 33 33 33 33 33 32 32 31 31 30 31 32 31 31 33 34 34 32 31 31 30 30 30 30 29 28 27 26 25 26 26 27 26 24 23 24
22 21 20 19 19 20 22 23 24 24 24 23 22 21 21 22 24 25 26 25 25 25 27 28 29 30 30 30 29 29 29 31 33 35 37 39 41 42 41 41 40 39 38 37 36 35 35 35 35 35 34 34 34 33 32 32 31 30 30 31 31 30 30 31 32 32 32 32 31 30 30 31 30 27 25 23 23 24 24 23 24 24 23 21 23
21 20 19 18 19 21 22 23 25 26 26 26 25 25 24 24 25 27 28 28 27 27 27 28 29 31 32 32 30 29 30 31 33 36 38 40 41 41 41 41 40 40 40 38 37 36 36 36 35 36 36 35 34 34 33 32 31 30 30 31 31 30 30 31 32 32 33 32 31 31 32 32 29 25 23 21 21 22 21 21 24 25 23 21 22
20 18 17 18 19 20 22 23 24 26 27 27 27 27 27 27 27 29 30 31 30 30 29 29 30 30 30 30 31 31 32 33 34 34 35 36 37 38 39 40 40 40 40 40 39 37 37 36 36 36 36 36 35 34 33 32 30 29 30 30 30 31 32 32 32 33 33 32 31 32 33 30 26 23 21 20 22 21 20 21 24 24 21 19 20
20 17 16 17 18 19 21 22 23 24 26 27 27 27 28 30 31 31 32 32 33 33 32 32 32 30 29 31 33 33 34 35 35 34 33 34 35 36 38 39 40 40 41 41 41 40 39 37 36 36 36 36 35 34 33 31 29 28 29 31 32 33 33 33 33 33 33 33 33 33 31 26 23 21 19 20 23 23 21 21 22 21 19 19 19
20 17 16 16 17 18 20 21 22 23 24 26 27 28 29 30 32 32 33 34 35 35 35 35 34 33 33 35 36 36 36 37 36 35 34 34 35 37 38 39 39 40 41 41 40 40 39 38 37 37 37 36 35 34 32 31 29 28 29 31 33 33 33 32 32 33 33 33 34 33 30 26 23 20 17 18 21 22 20 19 19 18 18 18 18
20 17 15 17 18 19 20 21 22 22 23 24 26 27 29 31 32 33 33 34 35 35 35 36 35 34 34 35 37 38 38 37 37 37 36 35 36 37 39 40 40 41 41 40 38 38 38 37 37 38 37 36 35 33 31 30 30 29 29 31 32 31 31 32 32 32 31 31 32 32 30 26 22 18 16 18 20 20 20 19 18 17 16 16 17
20 17 16 18 19 20 21 22 22 22 23 24 25 25 27 29 31 32 32 32 32 32 32 33 33 33 33 34 35 37 38 37 37 37 37 37 38 39 40 41 41 41 41 40 38 37 36 37 38 38 37 36 34 31 29 30 30 28 28 31 33 33 34 34 32 30 29 29 30 30 28 24 20 17 16 19 21 22 21 19 17 16 15 17 18
18 16 16 19 20 20 21 22 21 22 23 25 25 24 25 26 27 29 29 29 28 26 26 27 27 27 28 29 31 35 36 36 37 37 37 39 39 39 40 41 41 40 39 38 36 36 37 36 35 35 34 33 32 30 28 28 28 26 25 28 33 35 33 31 30 30 28 28 28 27 24 21 19 17 16 18 20 20 19 17 17 18 18 19 19
15 15 16 18 20 20 20 21 20 21 22 23 23 23 22 22 23 24 26 27 25 22 21 21 21 22 23 26 29 32 34 34 35 36 37 38 39 38 39 39 38 38 36 35 34 35 34 30 28 30 32 31 30 29 27 26 24 23 24 28 33 35 31 27 25 24 22 22 23 23 22 20 19 18 18 19 18 17 18 19 19 19 19 19 18
12 14 15 17 18 19 19 19 18 19 19 20 20 20 19 19 19 20 21 23 22 21 19 19 19 19 21 23 26 29 31 32 34 35 36 37 38 38 37 36 36 36 34 32 32 31 28 24 25 28 29 27 24 24 23 21 19 21 25 30 33 33 28 23 20 17 16 17 19 20 20 20 19 19 19 18 17 16 17 18 17 16 16 16 16
12 13 14 15 15 16 17 16 15 15 15 15 15 15 15 15 15 15 15 17 18 18 18 18 18 19 20 22 23 24 26 27 29 32 34 35 35 35 34 33 33 32 31 30 29 27 26 24 24 23 22 20 18 18 17 15 15 18 23 27 29 28 26 23 20 17 15 15 15 15 16 17 17 17 18 17 15 14 14 14 14 14 14 14 16
12 12 12 12 12 12 12 12 11 11 11 11 11 10 10 10 11 11 12 13 14 15 15 16 16 17 18 19 20 20 20 21 22 24 26 27 29 30 30 29 28 27 26 25 24 23 23 22 20 19 18 18 17 17 17 17 16 17 18 20 21 23 26 25 20 16 14 13 12 11 12 13 14 15 16 15 14 13 13 13 14 14 15 16 17
10 10 9 8 7 7 7 7 6 6 6 6 5 5 5 5 6 7 8 9 10 11 13 14 14 15 17 17 17 16 15 16 17 18 19 20 21 23 23 24 23 22 22 22 22 21 20 21 21 22 22 22 21 20 20 20 20 19 18 16 16 18 21 21 20 17 15 13 11 10 10 11 13 14 15 15 14 13 13 13 13 13 13 14 14
8 7 5 4 3 2 2 2 1 1 2 1 1 0 0 0 1 2 4 6 8 10 11 13 14 15 15 15 14 14 14 15 17 18 19 20 21 22 23 24 24 24 24 26 28 28 27 28 29 28 28 27 26 24 23 22 22 21 20 18 17 17 19 20 21 19 16 13 11 10 10 10 12 13 14 15 14 13 12 11 11 11 11 10 10
6 4 2 1 2 2 2 3 4 5 5 4 4 4 5 5 6 6 6 6 7 8 11 13 14 16 16 17 17 18 18 20 21 22 24 25 26 27 28 29 30 31 33 35 37 37 36 34 33 32 32 31 30 28 26 25 25 24 23 22 21 20 20 21 22 22 19 15 13 12 11 11 11 11 11 11 11 11 10 9 9 8 8 7 7
Wind_Direction
229 231 232 232 232 232 233 233 233 232 231 230 230 232 235 236 237 238 239 240 240 239 237 235 234 232 230 229 230 232 236 239 243 245 248 250 249 248 250 252 253 252 252 252 256 260 264 265 266 267 265 259 254 253 253 256 262 268 274 280 287 294 300 305 306 305 306 308 307 308 309 311 319 321 320 323 322 322 331 337 340 339 334 335 332
230 231 232 233 234 235 235 235 235 235 234 233 233 233 235 237 238 238 239 241 242 242 240 238 237 235 232 229 228 231 235 239 243 246 249 251 251 250 251 254 257 259 258 257 258 261 264 266 267 269 270 266 262 258 256 258 263 267 272 278 284 291 297 301 302 303 303 303 303 305 307 307 311 316 321 327 328 325 330 336 340 338 333 332 331
231 232 233 234 235 236 237 238 238 237 236 236 236 235 236 237 238 239 239 239 241 242 241 240 239 237 235 232 230 231 234 237 240 245 249 251 252 253 253 255 257 259 262 263 265 267 268 268 269 271 272 271 268 264 261 261 264 267 270 275 282 287 292 294 295 298 301 301 302 306 308 307 311 317 321 327 330 328 331 336 338 335 332 331 329
231 232 233 235 236 237 238 239 240 240 239 238 237 238 238 238 238 239 240 240 240 240 241 241 241 239 237 235 235 235 236 237 239 243 247 250 253 254 255 257 258 259 261 263 265 268 270 271 271 271 270 270 270 268 266 265 266 269 271 272 276 280 284 287 289 292 296 298 302 306 309 310 314 319 320 322 326 327 331 335 336 332 330 331 329
230 231 233 234 236 237 238 240 241 241 242 241 239 239 239 240 240 240 240 241 241 240 240 242 243 243 243 242 242 242 241 242 244 245 248 251 255 257 258 259 260 261 262 263 263 265 268 270 272 271 270 269 270 270 269 269 269 270 272 274 275 278 281 284 286 289 291 295 299 303 306 309 313 316 318 319 319 323 328 333 335 329 326 331 332
230 231 233 234 236 238 239 240 241 243 244 245 244 242 241 241 242 242 242 242 242 242 242 242 243 244 246 248 249 250 249 249 249 249 251 253 257 260 262 262 262 263 264 264 264 265 266 268 269 269 269 269 271 271 270 271 271 271 272 275 277 279 281 283 286 287 289 292 296 299 303 307 310 312 315 316 316 321 325 328 333 330 325 330 334
228 230 232 234 236 238 239 241 243 244 246 247 247 246 245 244 244 244 244 244 244 244 243 243 244 245 247 249 251 253 255 254 254 254 254 256 258 261 263 265 266 266 266 266 266 267 267 267 267 266 266 267 269 270 269 269 270 271 272 274 275 276 277 280 283 285 288 290 292 295 300 302 305 307 311 312 313 322 327 326 329 331 328 331 336
228 230 232 234 236 239 241 242 244 245 247 248 248 248 247 246 245 245 245 245 245 245 245 245 246 246 247 249 251 254 256 257 257 257 258 259 261 263 264 265 267 267 267 267 268 268 268 268 268 267 265 265 265 266 267 267 268 269 270 271 273 273 274 276 278 280 283 285 287 291 294 295 298 301 304 306 311 321 329 329 329 329 327 331 336
228 230 231 234 237 239 241 243 244 246 247 248 248 249 248 247 246 245 245 246 247 247 247 247 248 248 249 250 252 253 255 257 257 258 259 260 262 264 265 266 267 267 267 267 267 269 270 271 271 270 268 266 265 264 264 264 266 267 269 269 270 272 273 274 275 276 278 281 283 286 287 287 290 294 296 299 308 320 329 330 329 329 326 327 333
228 230 232 235 238 240 241 243 244 246 247 248 249 249 250 249 248 247 246 246 247 248 249 249 250 251 251 252 253 254 255 256 257 257 258 260 261 263 264 265 266 267 266 266 265 266 268 271 271 270 268 267 265 264 263 263 264 266 268 269 270 271 272 273 273 274 276 279 281 283 283 281 282 287 289 292 305 319 327 327 328 329 327 325 327
229 231 233 237 238 239 241 243 244 246 247 249 250 251 251 251 250 250 249 248 248 248 249 250 251 252 253 253 254 255 256 257 257 258 258 259 260 261 262 263 264 265 266 266 265 264 266 268 269 268 266 264 264 264 263 262 262 263 265 267 269 270 272 273 274 273 274 276 279 280 279 278 278 280 282 289 304 318 323 324 326 328 327 324 322
230 232 234 236 238 239 241 243 244 247 248 250 251 252 252 252 252 252 252 251 251 250 250 251 251 252 253 254 255 255 256 257 257 257 258 258 259 260 261 262 262 263 264 265 266 265 266 267 269 268 266 264 263 262 261 260 260 260 262 264 266 268 269 272 273 274 273 274 276 276 275 275 278 279 282 292 305 312 315 318 320 322 322 320 317
230 233 234 235 237 238 239 241 244 246 249 250 252 252 252 252 252 253 253 253 253 254 254 253 253 253 253 254 255 255 256 256 256 256 256 256 257 259 261 261 262 262 263 264 265 266 266 268 269 270 268 266 265 263 260 259 258 258 260 261 262 264 266 269 272 274 275 273 271 272 272 274 277 279 285 296 302 305 307 309 310 312 313 313 312
231 232 233 234 236 236 235 237 242 246 248 250 251 251 252 252 253 254 254 254 254 254 255 255 255 255 255 255 255 255 255 255 255 255 255 255 256 258 260 261 262 262 263 263 264 265 265 267 269 269 269 268 267 265 262 260 259 258 258 258 259 260 262 265 267 271 274 272 269 270 272 274 276 280 286 294 296 297 299 300 301 303 305 306 306
232 233 234 235 236 235 235 235 236 240 243 246 247 249 251 253 254 254 254 255 255 255 255 255 256 257 257 257 257 256 255 253 254 254 254 254 255 257 259 260 261 262 262 263 264 264 264 266 267 268 268 267 266 265 264 264 262 261 258 256 256 257 257 259 261 264 268 268 267 268 270 272 274 277 283 287 288 290 293 293 295 298 300 301 300
227 231 234 236 237 237 237 237 235 235 238 240 243 246 249 251 253 254 255 255 256 256 256 256 256 256 256 257 258 258 255 252 252 253 253 253 254 256 258 259 260 261 261 261 263 263 263 264 265 266 266 265 264 264 266 267 266 264 261 258 257 257 255 255 257 260 262 263 264 266 267 269 270 273 276 280 282 285 289 290 292 295 297 297 295
226 230 232 233 233 236 239 239 238 238 238 238 240 244 248 250 252 253 254 254 255 256 256 257 257 257 257 257 259 260 257 253 251 251 251 252 254 255 256 257 258 259 259 260 261 262 262 262 263 264 264 263 262 263 266 268 268 266 264 262 260 259 256 255 256 258 260 261 262 264 266 267 268 270 273 276 279 282 285 287 291 294 294 292 293
235 240 241 238 234 235 238 239 239 240 239 238 241 245 247 250 253 254 254 256 257 257 258 259 259 260 260 260 261 264 263 258 255 253 250 251 253 254 254 255 257 257 258 259 260 261 260 260 260 261 261 260 261 262 264 267 268 267 266 265 264 261 258 256 258 259 260 261 263 264 266 267 268 270 274 277 279 280 281 285 288 290 289 289 294
234 240 248 249 243 241 241 239 238 238 238 239 243 247 250 252 254 255 256 257 258 259 259 259 260 261 262 263 263 265 266 264 261 256 252 250 252 253 253 255 255 255 256 257 258 260 259 259 258 258 258 258 258 260 263 266 267 267 267 267 264 260 257 259 262 263 263 263 264 265 265 265 266 269 272 274 277 279 280 282 284 285 286 289 293
256 247 249 250 246 245 244 242 238 236 237 241 245 249 252 254 255 255 256 257 258 259 259 259 261 262 263 264 264 264 265 265 263 260 255 252 252 253 253 254 254 254 255 256 257 259 259 258 256 255 255 255 256 258 261 264 267 268 268 266 263 260 259 262 265 266 266 266 267 267 266 264 264 266 267 268 272 276 279 280 281 283 286 288 290
290 279 267 254 244 240 239 238 238 236 237 241 245 247 250 252 253 254 256 257 257 258 259 260 261 263 263 263 264 264 264 264 263 262 259 256 255 254 254 253 253 253 255 256 257 258 258 257 255 254 253 253 253 256 259 263 268 270 270 267 265 265 265 266 266 268 269 269 269 268 266 264 264 264 265 267 269 273 276 277 280 283 284 284 285
294 296 289 271 258 253 241 231 231 234 236 239 242 245 248 251 253 254 256 257 257 258 260 260 261 262 264 264 264 264 264 264 263 261 259 257 257 256 254 253 252 253 255 255 255 255 255 255 254 253 253 253 253 254 257 261 265 268 270 271 272 271 271 270 270 271 272 271 270 269 267 266 265 265 266 267 269 273 276 277 280 282 281 280 280
298 302 299 286 276 275 266 240 227 229 231 234 239 244 248 251 253 255 255 255 256 256 257 258 258 260 262 263 263 263 263 263 262 260 258 257 256 256 255 254 253 253 254 253 253 253 254 254 254 253 253 253 254 254 257 260 263 266 269 273 274 275 273 271 271 273 274 274 274 271 268 268 268 268 267 267 270 275 278 278 278 278 277 277 274
313 300 294 291 283 274 267 264 259 246 235 233 237 242 245 247 251 255 256 255 253 253 255 255 255 257 260 261 261 262 261 261 260 259 257 256 256 256 255 254 254 253 252 252 251 251 252 253 254 254 254 255 256 258 259 261 264 266 270 272 271 270 269 269 270 274 275 274 274 272 270 270 270 269 268 269 272 275 276 274 273 274 274 273 270
327 315 297 295 293 281 268 264 268 267 261 253 247 245 244 243 244 249 253 253 251 250 251 252 252 254 257 259 260 260 260 260 260 259 258 257 256 256 255 254 253 253 253 252 251 251 252 253 254 255 256 257 259 261 262 263 264 267 268 268 266 264 265 267 270 272 272 272 273 273 272 271 271 272 273 275 275 273 270 268 269 270 270 267 266
322 321 312 306 302 294 283 273 270 269 266 264 261 258 255 251 248 248 250 250 249 248 248 249 250 252 255 257 259 259 259 260 260 259 259 258 256 255 255 255 254 254 254 254 253 252 252 253 254 255 256 258 261 262 263 264 265 266 265 264 263 262 263 266 268 270 271 272 273 273 272 273 274 275 276 276 273 269 267 266 266 265 265 265 265
316 315 313 311 307 301 293 285 281 278 273 270 267 264 261 257 253 248 245 245 246 246 245 246 247 249 252 256 257 258 259 260 259 258 257 256 256 255 255 256 255 254 253 252 250 249 248 249 250 252 255 258 259 260 262 263 264 264 264 264 263 263 263 265 267 269 270 271 271 271 272 273 274 274 274 274 273 271 269 265 262 261 262 263 263
313 312 310 307 305 304 299 289 278 273 270 265 259 256 255 253 252 249 245 243 244 246 247 247 248 250 253 256 258 258 259 259 258 257 256 256 257 257 256 255 255 254 254 253 252 250 248 247 248 249 250 253 255 257 259 261 262 263 264 265 265 265 265 265 265 265 265 266 267 268 269 270 271 271 273 273 273 271 268 263 260 259 260 260 260
310 309 309 306 301 301 302 296 280 265 257 253 248 246 247 248 252 254 251 247 247 250 252 254 256 257 258 259 259 258 258 258 258 259 260 261 261 261 259 258 259 260 262 263 260 256 251 248 247 247 248 250 252 254 257 259 261 262 264 265 266 266 265 263 262 261 262 264 265 265 266 267 267 269 270 270 269 268 266 263 261 261 260 260 262
309 307 307 307 303 301 304 303 292 274 259 253 251 248 246 246 250 255 256 253 250 249 251 254 258 261 261 260 259 259 260 262 266 269 268 267 268 268 266 266 267 268 269 267 263 257 253 250 249 248 249 250 251 253 255 257 259 261 263 265 267 267 265 263 262 261 262 262 262 263 263 264 265 266 267 267 266 265 264 264 263 262 260 260 263
308 308 308 309 308 307 306 306 300 286 269 257 254 254 253 252 251 254 259 260 256 250 247 249 253 257 260 261 261 262 263 266 269 269 268 268 269 269 268 269 270 270 269 266 262 258 255 252 250 248 249 250 250 252 254 256 257 260 263 266 266 266 265 263 262 262 262 262 262 262 263 263 265 267 266 264 262 261 261 261 261 260 258 258 260
306 306 307 309 311 311 309 309 306 296 282 267 258 259 261 262 260 258 260 264 263 255 248 247 248 252 255 258 259 260 261 263 265 266 267 267 268 268 269 269 269 270 269 265 262 259 256 253 250 248 247 247 248 249 252 255 257 258 260 262 263 263 262 262 262 263 264 263 263 263 264 266 267 268 266 262 259 256 255 256 258 260 259 256 256
304 305 306 308 311 311 309 308 306 300 291 280 268 265 265 265 266 267 266 267 267 261 253 248 248 249 250 252 253 256 258 260 262 264 265 265 267 268 269 268 268 267 265 261 259 259 258 255 252 249 246 246 247 249 251 253 255 255 255 257 259 260 260 262 265 265 265 264 265 266 267 266 266 266 263 259 257 256 256 258 259 259 258 257 258
303 304 305 306 307 307 305 303 302 298 294 285 274 270 267 264 264 269 271 272 273 269 260 253 251 250 250 250 251 253 255 257 258 260 261 262 264 265 265 264 262 261 259 258 258 258 258 257 255 251 248 247 247 249 251 252 252 253 252 253 256 259 261 263 265 266 267 268 269 269 268 266 264 263 261 258 256 255 255 256 258 258 257 257 257
303 304 305 302 301 299 297 294 293 292 290 284 274 268 266 262 260 263 267 271 275 276 271 263 258 256 255 254 253 254 256 256 257 258 259 259 260 260 259 257 257 256 255 255 256 256 256 257 257 255 252 249 248 249 251 252 252 252 251 252 255 259 262 263 266 269 271 271 269 268 268 267 264 262 259 258 257 254 250 248 251 256 257 253 248
302 304 303 298 294 290 286 285 285 285 283 279 270 261 257 256 255 255 258 263 268 273 274 271 266 261 259 257 256 255 257 258 258 258 257 257 256 255 254 254 255 255 255 255 255 255 255 256 257 257 254 251 249 250 251 252 253 253 252 253 257 261 262 264 268 272 273 273 270 268 266 265 262 260 259 259 258 255 250 245 246 251 253 247 239
300 302 301 295 288 282 279 278 278 277 275 272 267 259 254 253 252 252 253 255 258 263 270 273 271 265 258 254 253 255 257 258 257 257 255 254 253 253 252 253 255 256 256 257 256 256 256 256 256 255 254 251 251 251 251 252 253 253 252 253 257 260 262 265 269 272 273 273 271 268 264 262 261 263 264 263 259 255 250 245 245 247 245 240 236
297 297 297 293 286 280 278 277 276 274 272 268 264 259 255 253 251 250 250 251 253 256 260 266 270 268 262 255 254 257 259 259 257 255 253 252 252 253 253 253 254 255 256 257 257 256 257 257 256 254 252 251 250 251 251 252 252 251 250 252 256 259 260 263 266 269 270 272 271 267 264 263 265 268 266 261 259 258 252 246 248 246 237 231 231
293 292 291 291 287 283 282 282 281 278 275 271 266 262 257 254 251 249 249 250 251 253 254 257 262 265 264 261 259 259 260 260 259 258 257 255 254 254 254 253 253 254 255 257 257 256 256 257 256 253 251 250 250 250 251 252 252 251 251 253 256 257 257 259 262 264 268 270 270 267 266 267 267 265 259 255 258 259 251 246 250 246 233 226 229
289 290 290 292 291 288 286 288 287 283 279 276 273 268 262 256 252 250 249 249 249 250 251 254 256 259 264 267 267 265 264 265 265 264 263 259 256 254 252 251 251 251 252 253 254 255 255 256 255 253 251 250 250 250 251 252 252 252 253 254 255 257 259 260 261 262 265 266 266 266 267 265 260 255 253 253 254 250 241 240 243 239 228 226 227
287 289 293 297 300 297 295 294 292 288 282 279 277 274 269 262 257 254 253 252 251 250 250 251 253 257 263 267 268 267 267 267 267 266 263 260 258 255 253 251 250 250 250 251 253 255 256 256 255 254 252 252 252 253 253 253 252 252 253 255 257 260 262 261 260 260 260 260 260 262 263 261 258 255 254 253 248 239 232 233 234 229 223 223 220
284 291 301 306 307 306 303 299 295 292 287 284 280 277 273 268 263 260 259 257 256 255 254 253 253 256 261 265 267 267 266 266 266 265 262 260 257 255 253 251 250 249 250 251 253 254 256 257 258 256 253 252 252 252 253 252 252 253 255 257 259 260 259 258 257 256 254 252 253 255 256 256 257 258 255 253 246 233 225 225 225 221 218 213 207
283 293 308 314 314 312 308 304 299 296 293 290 286 281 276 271 267 264 264 264 263 262 262 261 260 259 259 262 265 267 265 264 264 263 261 258 255 253 251 251 250 249 249 248 250 251 254 256 257 255 252 251 251 252 252 251 251 254 257 258 258 255 253 251 248 242 238 238 242 246 248 252 257 259 253 246 237 225 217 218 220 214 206 201 199
284 294 309 316 317 315 311 307 305 301 298 296 293 286 279 274 269 265 264 265 266 267 269 273 274 273 270 269 269 267 264 261 259 258 257 255 253 252 252 251 249 248 248 248 249 250 249 250 253 253 251 250 251 251 251 250 250 250 250 250 251 250 249 246 240 234 230 232 236 240 245 250 254 250 239 229 222 214 208 209 208 202 196 195 198
288 296 308 315 316 315 312 309 307 304 302 299 296 289 281 274 269 264 261 260 261 262 265 270 273 275 275 274 271 266 260 256 253 251 250 250 250 251 251 249 249 248 249 250 251 249 244 245 251 253 250 247 247 248 248 248 246 239 232 231 237 242 243 240 237 234 235 238 241 243 246 247 241 232 222 214 206 199 197 199 200 198 197 200 205
295 302 308 312 313 313 311 309 308 306 303 300 296 290 282 275 268 263 259 257 254 252 251 251 252 252 252 252 252 251 250 249 248 246 246 246 246 246 246 246 247 248 248 249 249 243 237 238 247 249 244 240 240 243 244 242 236 226 218 218 225 232 232 229 230 233 235 236 236 236 236 233 225 216 212 207 197 190 191 196 198 199 202 206 210
299 303 306 309 310 310 309 308 309 308 304 299 293 286 280 274 268 262 257 252 247 242 239 238 236 235 232 230 229 228 229 230 232 234 236 238 240 240 240 240 241 242 243 243 239 232 227 229 233 233 229 225 222 222 221 215 208 207 210 213 217 218 216 217 225 232 231 228 224 219 219 216 207 199 200 201 197 194 196 197 197 197 201 205 208
298 301 304 307 308 306 303 305 308 308 304 300 293 284 274 268 263 257 251 245 239 235 231 227 223 221 220 218 216 214 212 211 212 213 216 220 224 226 227 226 224 225 226 224 219 213 212 212 206 197 194 195 191 184 178 172 170 178 189 197 202 204 203 204 205 203 201 203 203 198 197 195 187 183 186 191 192 194 196 195 194 197 200 204 207
294 298 303 306 305 301 299 301 305 307 307 304 298 290 279 267 255 246 240 235 228 223 221 219 216 214 213 211 208 204 199 195 192 191 191 194 196 197 198 200 201 199 192 185 180 178 178 177 172 167 168 168 164 158 154 153 155 160 165 167 173 181 183 179 172 165 166 171 173 174 179 181 178 177 180 182 183 185 188 189 192 197 203 208 213
288 293 300 304 300 303 312 314 322 346 343 319 304 34 57 145 174 186 206 213 211 205 202 199 197 196 195 194 191 187 180 172 167 164 163 164 164 164 168 175 181 177 165 155 152 153 154 154 154 154 155 153 150 148 148 148 150 151 151 150 155 161 163 161 158 156 156 160 166 173 182 185 183 182 182 182 181 183 186 190 194 201 208 215 220
267 268 248 144 132 121 107 98 95 90 87 91 96 100 104 109 113 120 135 150 165 177 184 185 183 179 174 165 158 154 152 150 149 147 144 143 144 145 147 152 158 158 152 145 143 145 147 147 147 148 148 147 145 146 147 148 149 149 149 151 154 156 154 153 152 150 150 155 164 172 179 181 183 185 184 182 182 186 192 200 207 209 214 220 224